Flag for USA

Past Weather in 33°37'26.6"N, 111°55'48.2"W, USA — Yesterday and Last 2 Weeks

Now
97 °F

Passing clouds.


Feels Like: 93 °F
Forecast: 107 / 84 °F
Wind: 9 mph from Northwest

Location: Phoenix Sky Harbor International Airport

Current Time: May 30, 2020 at 1:55:09 am

Latest Report: May 30, 2020 at 12:51 am


Visibility: 10 mi

Pressure: 29.73 "Hg

Humidity: 14%

Dew Point: 41 °F

Location of 33°37'26.6"N, 111°55'48.2"WLocation

Past Weather in 33°37'26.6"N, 111°55'48.2"W — Graph

°F

33°37'26.6"N, 111°55'48.2"W Temperature Yesterday

Maximum temperature yesterday: 111 °F (at 2:51 pm)
Minimum temperature yesterday: 82 °F (at 5:51 am)
Average temperature yesterday: 98 °F

High & Low Weather Summary for the Past Weeks

 TemperatureHumidityPressure
High111 °F (May 29, 2:51 pm)38% (May 16, 5:51 am)29.97 "Hg (May 16, 5:51 am)
Low64 °F (May 20, 5:51 am)6% (May 21, 3:51 pm)29.62 "Hg (May 22, 5:51 pm)
Average86 °F15%29.74 "Hg
* Reported May 14 11:51 pm — May 29 11:51 pm, 33°37'26.6"N, 111°55'48.2"W. Weather by CustomWeather, © 2020

Note: Actual official high and low records may vary slightly from our data, if they occured in-between our weather recording intervals... More about our weather records

33°37'26.6"N, 111°55'48.2"W Weather History for the Previous 24 Hours

Scroll right to see more
 ConditionsComfort  
Time TempWeatherWind HumidityBarometerVisibility
11:51 pm
Fri, May 29
99 °FPartly cloudy.10 mph13%29.73 "Hg10 mi
10:51 pm101 °FPartly cloudy.5 mph14%29.72 "Hg10 mi
9:51 pm102 °FPartly cloudy.3 mph12%29.74 "Hg10 mi
8:51 pm101 °FPartly cloudy.7 mph12%29.71 "Hg10 mi
7:51 pm105 °FPassing clouds.7 mph9%29.68 "Hg10 mi
6:51 pm108 °FScattered clouds.16 mph9%29.67 "Hg10 mi
5:51 pm110 °FPassing clouds.7 mph8%29.66 "Hg10 mi
4:51 pm110 °FPassing clouds.No wind9%29.66 "Hg10 mi
3:51 pm110 °FPassing clouds.7 mph9%29.69 "Hg10 mi
2:51 pm111 °FPassing clouds.5 mph9%29.71 "Hg10 mi
1:51 pm109 °FPassing clouds.7 mph10%29.74 "Hg10 mi
12:51 pm106 °FPassing clouds.7 mph11%29.78 "Hg10 mi
11:51 am105 °FPassing clouds.5 mph11%29.80 "Hg10 mi
10:51 am100 °FPassing clouds.5 mph12%29.83 "Hg10 mi
9:51 am97 °FPassing clouds.7 mph14%29.85 "Hg10 mi
8:51 am92 °FPassing clouds.3 mph18%29.86 "Hg10 mi
7:51 am87 °FPassing clouds.9 mph21%29.86 "Hg10 mi
6:51 am84 °FPassing clouds.13 mph25%29.85 "Hg10 mi
5:51 am82 °FPassing clouds.7 mph25%29.82 "Hg10 mi
4:51 am83 °FPassing clouds.6 mph24%29.80 "Hg10 mi
3:51 am85 °FClear.5 mph21%29.78 "Hg10 mi
2:51 am87 °FClear.No wind18%29.78 "Hg10 mi
1:51 am89 °FClear.No wind17%29.77 "Hg10 mi
Weather by CustomWeather, © 2020

See weather overview

Advertising